Regional Weather Roundup
Issued by NWS Wakefield, VA

Home | Current Version | Previous Version | Text Only | Print | Product List | Glossary Off
Versions: 1 2 3 4 5 6 7 8 9 10 11 12 13 14 15 16 17 18 19 20 21 22 23 24 25 26 27 28 29 30 31 32 33 34 35 36 37 38 39 40 41 42 43 44 45 46 47 48 49 50

331
ASUS41 KAKQ 282315
RWRAKQ

REGIONAL WEATHER ROUNDUP
NATIONAL WEATHER SERVICE WAKEFIELD VA
700 PM EDT SUN AUG 28 2016

Note: "fair" indicates few or no clouds below 12,000 feet with no
significant weather and/or obstructions to visibility. * = Denotes
station may not report precipitation (e.g., rain,snow,etc.),
thunder or fog.

VAZ042-051-052>054-056-290000-
NORTHERN VIRGINIA

CITY           SKY/WX    TMP DP  RH WIND       PRES   REMARKS
WASH NATIONAL  PTCLDY    85  65  51 SE12      30.15F
DULLES         PTCLDY    85  58  39 SE10      30.14F
FORT BELVOIR   CLEAR     83  65  54 VRB3      30.15S
QUANTICO       CLEAR     85  66  53 SE7       30.14
FREDERICKSBRG*   N/A     85  65  51 E5        30.13S
STAFFORD*      CLEAR     84  62  46 SE3       30.18S
WARRENTON      CLEAR     83  64  51 E5        30.14F
CULPEPER*      CLEAR     83  68  60 CALM      30.15S
MANASSAS*      CLEAR     82  66  57 SE5       30.14F
LEESBURG*      CLEAR     86  63  45 E7        30.15S
WINCHESTER     CLEAR     86  64  48 S7        30.15F
FRONT ROYAL*   FAIR      82  68  61 SE3       30.14F
LURAY*         FAIR      84  66  54 E8        30.15F
$$

VAZ048-049-060>072-079>083-290000-
CENTRAL AND SOUTH CENTRAL VIRGINIA

CITY           SKY/WX    TMP DP  RH WIND       PRES   REMARKS
RICHMOND       MOCLDY    83  64  52 NE6       30.14S
CHESTERFIELD*  FAIR      84  55  37 E5        30.15F
PETERSBURG*    PTCLDY    85  64  50 E6        30.14S
HANOVER        PTCLDY    82  67  60 CALM      30.16S
TAPPAHANNOCK*  PTCLDY    84  64  51 CALM      30.15F
QUINTON*       FAIR      83  68  60 E3        30.14S
CHARLOTTSVILLE CLEAR     86  66  51 SE6       30.15S
GORDONSVILLE*  NOT AVBL
ORANGE*        NOT AVBL
LOUISA*        CLEAR     84  73  70 CALM      30.14F
BUMPASS*       FAIR      81  71  72 CALM      30.15S
FARMVILLE*     CLEAR     84  67  56 NE5       30.12F
CREWE*         FAIR      86  66  52 E3        30.13F
FORT PICKETT*  NOT AVBL
CHASE CITY*    FAIR      86  62  43 CALM      30.13S
CLARKSVILLE*   FAIR      86  63  45 E5        30.12S
SOUTH HILL*    PTCLDY    82  69  64 CALM      30.18F
LAWRENCEVILLE* FAIR      83  68  59 NE3       30.13S
EMPORIA*       CLOUDY    82  68  61 NE5       30.14S
$$

VAZ088>098-290000-
SOUTHEAST VIRGINIA

CITY           SKY/WX    TMP DP  RH WIND       PRES   REMARKS
NORFOLK        MOCLDY    79  71  76 NE13      30.13F
VIRGINIA BEACH MOCLDY    84  71  65 NE7       30.12F
NORFOLK NAVAL  CLOUDY    80  71  74 E13       30.15S
WEST POINT*    PTCLDY    82  66  58 E6        30.16S
SALUDA*        FAIR      82  70  66 E5        30.14F
NEWPORT NEWS   CLOUDY    80  71  74 E12       30.14S
LANGLEY AFB    CLOUDY    79  71  76 E14       30.13S
FORT EUSTIS    CLOUDY    83  71  66 E7        30.11F
WILLIAMSBURG*  CLOUDY    86  70  58 CALM      30.14F
HR EXEC AP*    FAIR      79  70  73 NE9       30.15F
FRANKLIN*      CLOUDY    79  70  73 E8        30.14S
US460-WAKEFLD  CLOUDY    82  69  64 E5        30.13S
$$

VAZ020-022-025-037-045-290000-
WEST CENTRAL AND SOUTHWEST VIRGINIA

CITY           SKY/WX    TMP DP  RH WIND       PRES   REMARKS
STAUNTON*      CLEAR     83  64  52 SE3       30.19F
WAYNESBORO*    FAIR      82  61  48 SE6       30.19F
HOT SPRINGS VA CLEAR     77  64  64 CALM      30.31S
LYNCHBURG      CLEAR     83  65  54 E6        30.17S
DANVILLE       CLOUDY    85  67  54 NE7       30.13F
SOUTH BOSTON*  FAIR      87  63  45 CALM      30.12F
MARTINSVILLE   CLEAR     82  69  65 CALM      30.17F
ROANOKE        PTCLDY    85  55  35 SE8       30.18S
BLACKSBURG     SUNNY     82  62  50 E6        30.25S
DUBLIN*        SUNNY     83  63  51 E6        30.23S
MARION*        MOSUNNY   82  64  54 E9        30.25S
HILLSVILLE*    SUNNY     78  65  65 SE3       30.24S
RICHLANDS*     FAIR      81  69  67 SE8       30.23R
WISE*          MOSUNNY   79  63  57 N5        30.25R
ABINGDON*      SUNNY     86  64  48 E12       30.18S
$$

MDZ021>025-VAZ099-100-290000-
SOUTHERN MARYLAND AND THE DELMARVA PENINSULA

CITY           SKY/WX    TMP DP  RH WIND       PRES   REMARKS
PATUXENT RIVER CLEAR     81  66  60 E5        30.14F
BAY BRIDGE APT CLEAR     84  66  54 SE7       30.15F
LEONARDTOWN    CLEAR     81  64  57 CALM      30.17S
DOVER          CLEAR     80  70  71 SE7       30.16S
GEORGETOWN     NOT AVBL
EASTON         PTCLDY    84  68  58 E7        30.20R
CAMBRIDGE      CLEAR     81  63  54 E3        30.15S
SALISBURY      CLEAR     79  64  60 E8        30.16S
OCEAN CITY     CLEAR     79  68  69 E7        30.17R
WALLOPS ISLAND CLEAR     79  57  46 NE15      30.16S
ACCOMACK*      CLEAR     77  66  69 E12       30.15F
$$

NCZ012>017-030>032-290000-
NORTH CENTRAL AND EASTERN NORTH CAROLINA

CITY           SKY/WX    TMP DP  RH WIND       PRES   REMARKS
ROANOKE RAPIDS FAIR      81  68  65 E5        30.12S
RALEIGH        CLOUDY    86  66  51 E12       30.11F
ELIZABETH CITY CLEAR     80  73  79 NE14      30.12S
AHOSKIE*       CLOUDY    79  69  71 NE5       30.13S
EDENTON*       PTCLDY    82  72  72 NE6       30.12R
CURRITUCK*       N/A     80  74  81 NE12      30.12F
KILL DEVIL HLS PTCLDY    80  79  97 NE6       30.09S
MANTEO         MOCLDY    79  78  96 NE8       30.11R
CAPE HATTERAS  CLOUDY    81  74  79 NE3       30.09R
TARBORO*       FAIR      81  74  80 CALM      30.11F
GOLDSBORO      CLOUDY    78  78 100 NE7       30.08F
WASHINGTON     HVY RAIN  74  73  95 NE5       30.11F
GREENVILLE     LGT RAIN  77  77 100 E6        30.11F
NEW BERN       CLOUDY    78  76  93 NE8       30.10S
WILMINGTON     MOCLDY    79  74  84 N8        30.06F
$$

VAZ048-290000-
ELSEWHERE

CITY           SKY/WX    TMP DP  RH WIND       PRES   REMARKS
HARRISBURG PA  PTCLDY    84  65  52 SE8       30.13F
BALTIMORE      PTCLDY    84  64  50 SE6       30.15F
ANNAPOLIS      CLEAR     84  69  60 NE5       30.14F
ANDREWS AFB    CLEAR     82  65  55 E6        30.15F
PHILADELPHIA   PTCLDY    86  67  52 SW12      30.15F
HENDERSON NC   CLOUDY    80  65  59 E3        30.13S
GREENSBORO     MOCLDY    85  63  47 E10       30.14S
ROCKY MOUNT    CLOUDY    83  70  64 SE5       30.11S
$$

VAZ100-290000-
MARINE

STATION/POSITION TIME  TEMP    WIND        PRES    WAVE   SWELL
                       AIR SEA DIR/SP/G            HT/PER HT/PER
                 (UTC) (F)     (DEG/KT/KT) (MB)    (FT/S) (FT/S)
BRANDYWINE LGT   2200   76                   N/A
CAPE MAY NJ      2200   79 77              1021.2F
LEWES DE         2200   77 78              1021.5F
OCEAN-CITY-INLET 2200   79 76              1021.9F
WACHAPREAGUE VA  2200   79 83              1021.2R
THOMAS POINT MD  2300   83 84   40/  8/  9 1022.1F
GOOSES REEF MD   2300   85 83  100/ 10/ 10 1021.3F   1/ 2
COVE POINT MD    2200   82                 1021.4F
SOLOMONS ISLAND  2200   84 85                N/A
PINEY POINT MD   2224          120/  9/ 10   N/A
POTOMAC MD       2300   84 83  110/ 10/ 14 1019.8S   1
CAMBRIDGE MD     2200   85 83              1020.3F
LEWISETTA VA     2200   83 86              1020.5F
RAPPAHANNOCK LGT 2200                      1021.4F
STINGRAY PT      2300   82 84   40/ 12/ 14 1021.0F   1/ 2
YORK RVR RNG VA  2200   81                 1020.3F
YORKTOWN VA      2200   81 84              1020.4F
JAMESTOWN VA     2300   83 86   50/  6/  8   N/A     0
DOMINION TERM VA 2200   80                 1020.6F
KIPTOPEKE VA     2200      81                N/A
CHES BAY BRIDGE  2200   78 78              1020.3F
CAPE HENRY VA    2200   78                   N/A
WILLOUBY STN VA  2200   79                   N/A
CAPE HENRY BUOY  2212      80                N/A     4/ 6
1ST LANDING BUOY 2300   78 77   80/ 12/ 14 1020.0F   2/ 3
CAPE CHARLES BUO 2226      80                N/A     4/ 5
OFFSHORE WE BUOY 2221      81                N/A     4/ 5
64NM E OF VA BCH 2250   81 81   40/ 16/ 19 1018.6F   5/ 8   2/ 8
DUCK PIER NC     2200   80 77              1018.9F
44100 DUCK FRF   2205      80                N/A     5/ 5
44056 DUCK FRF   2211      79                N/A     4/ 5
OREGON INLET NC  2200   80 80              1018.9F
HATTERAS NC      2200   82 82              1018.4R
DIAMOND SHLS NC  2250   83 85   60/ 10/ 10 1018.4R   3/15   3/15
CAPE LOOKOUT NC  2300   82      40/ 10/ 11 1017.9F
$$




USA.gov is the U.S. government's official web portal to all federal, state and local government web resources and services.